Imperial, CA

3:33 PM PDT on August 27, 2016 (GMT -0700)
Imperial County

Weather History for KIPL - April, 2012

Change the Weather History Date:

Thursday, April 5, 2012

  Actual Average Record
Temperature  
Mean Temperature 70 °F -  
Max Temperature 86 °F 84 °F 100 °F (1989)
Min Temperature 55 °F 53 °F 42 °F (1958)
Cooling Degree Days 4    
Growing Degree Days 20 (Base 50)    
Moisture  
Dew Point 34 °F    
Average Humidity 31    
Maximum Humidity 64    
Minimum Humidity 11    
Precipitation  
Precipitation 0.00 in - - ()
Sea Level Pressure  
Sea Level Pressure 29.78 in    
Wind  
Wind Speed 6 mph (SW)    
Max Wind Speed 23 mph    
Max Gust Speed 28 mph    
Visibility 10 miles    
Events      
Averages and records for this station are not official NWS values.
T = Trace of Precipitation, MM = Missing Value Source: NWS Daily Summary

Daily Weather History Graph

Daily Weather History Graph

Search for Another Location

Airport or City:

Trip Planner

Search our weather history database for the weather conditions in past years. The results will help you decide how hot, cold, wet, or windy it might be!

Date:

Astronomy

Apr. 05, 2012 Rise Set
Actual Time 6:24 AM PDT 7:05 PM PDT
Civil Twilight 5:59 AM PDT 7:30 PM PDT
Nautical Twilight 5:30 AM PDT 8:00 PM PDT
Astronomical Twilight 5:00 AM PDT 8:30 PM PDT
Moon 6:16 PM PDT (4/5) 5:20 AM PDT (4/5)
Length of Visible Light 13h 31m
Length of Day
12h 41m
Waxing Gibbous, 98% of the Moon is Illuminated
Apr 5
Waxing Gibbous
Apr 6
Full
Apr 13
Last Quarter
Apr 21
New
Apr 29
First Quarter

Hourly Weather History & Observations

Time (PDT) Temp. Dew Point Humidity Pressure Visibility Wind Dir Wind Speed Gust Speed Precip Events Conditions
12:53 AM 64.9 °F 34.0 °F 32% 29.78 in 10.0 mi Calm Calm - N/A   Clear
1:53 AM 61.0 °F 30.9 °F 32% 29.77 in 10.0 mi Calm Calm - N/A   Clear
2:53 AM 57.9 °F 34.0 °F 41% 29.76 in 10.0 mi Calm Calm - N/A   Clear
3:53 AM 59.0 °F 33.1 °F 38% 29.75 in 10.0 mi SE 4.6 mph - N/A   Clear
4:53 AM 57.9 °F 36.0 °F 44% 29.76 in 10.0 mi SSE 4.6 mph - N/A   Clear
5:53 AM 60.1 °F 37.9 °F 44% 29.76 in 10.0 mi Calm Calm - N/A   Clear
6:53 AM 55.0 °F 43.0 °F 64% 29.77 in 8.0 mi Calm Calm - N/A   Clear
7:53 AM 62.1 °F 34.0 °F 35% 29.78 in 10.0 mi SE 3.5 mph - N/A   Clear
8:53 AM 66.9 °F 36.0 °F 32% 29.79 in 10.0 mi Calm Calm - N/A   Clear
9:53 AM 70.0 °F 39.9 °F 33% 29.80 in 10.0 mi ESE 3.5 mph - N/A   Clear
10:53 AM 73.9 °F 42.1 °F 32% 29.81 in 10.0 mi SE 5.8 mph - N/A   Clear
11:53 AM 75.0 °F 42.1 °F 31% 29.80 in 10.0 mi ESE 9.2 mph - N/A   Clear
12:53 PM 78.1 °F 39.0 °F 25% 29.79 in 10.0 mi ESE 8.1 mph - N/A   Clear
1:53 PM 82.0 °F 33.1 °F 17% 29.76 in 10.0 mi Variable 3.5 mph - N/A   Clear
2:53 PM 84.9 °F 25.0 °F 11% 29.74 in 10.0 mi WSW 23.0 mph 27.6 mph N/A   Clear
3:53 PM 84.0 °F 24.1 °F 11% 29.73 in 10.0 mi WSW 20.7 mph 26.5 mph N/A   Clear
4:53 PM 82.0 °F 28.0 °F 14% 29.73 in 10.0 mi WSW 18.4 mph - N/A   Clear
5:53 PM 78.1 °F 25.0 °F 14% 29.75 in 10.0 mi WSW 13.8 mph 24.2 mph N/A   Clear
6:53 PM 73.0 °F 26.1 °F 17% 29.75 in 10.0 mi WSW 19.6 mph - N/A   Clear
7:53 PM 69.1 °F 28.9 °F 22% 29.77 in 10.0 mi WSW 19.6 mph - N/A   Clear
8:53 PM 64.0 °F 35.1 °F 34% 29.81 in 10.0 mi West 11.5 mph - N/A   Clear
9:53 PM 62.1 °F 37.0 °F 39% 29.84 in 10.0 mi West 17.3 mph 23.0 mph N/A   Clear
10:53 PM 60.1 °F 37.9 °F 44% 29.86 in 10.0 mi West 11.5 mph - N/A   Clear
11:53 PM 60.1 °F 35.1 °F 39% 29.87 in 10.0 mi West 11.5 mph 19.6 mph N/A   Clear